owner,sensor,date,latitude,longitude,air_temperature,qcFlag 
NDBC,ioos:station:NOAA.NDBC:SANF1:1,2016-03-02T21:50:00Z,24.4560,-81.8770,22.3,1111122 
NDBC,ioos:station:NOAA.NDBC:SANF1:1,2016-03-02T22:50:00Z,24.4560,-81.8770,22.4,1111122 
NDBC,ioos:station:NOAA.NDBC:SANF1:1,2016-03-02T23:50:00Z,24.4560,-81.8770,22.1,1111122 
NDBC,ioos:station:NOAA.NDBC:SANF1:1,2016-03-03T00:50:00Z,24.4560,-81.8770,21.9,1111122 
NDBC,ioos:station:NOAA.NDBC:SANF1:1,2016-03-03T01:50:00Z,24.4560,-81.8770,21.8,1111122 
NDBC,ioos:station:NOAA.NDBC:SANF1:1,2016-03-03T02:54:00Z,24.4560,-81.8770,21.9,1111122 
NDBC,ioos:station:NOAA.NDBC:SANF1:1,2016-03-03T03:50:00Z,24.4560,-81.8770,21.8,1111122 
NDBC,ioos:station:NOAA.NDBC:SANF1:1,2016-03-03T04:50:00Z,24.4560,-81.8770,21.6,1111122 
NDBC,ioos:station:NOAA.NDBC:SANF1:1,2016-03-03T05:50:00Z,24.4560,-81.8770,21.5,1111122 
NDBC,ioos:station:NOAA.NDBC:SANF1:1,2016-03-03T06:50:00Z,24.4560,-81.8770,21.5,1111122 
NDBC,ioos:station:NOAA.NDBC:SANF1:1,2016-03-03T07:50:00Z,24.4560,-81.8770,21.3,1111122 
NDBC,ioos:station:NOAA.NDBC:SANF1:1,2016-03-03T08:50:00Z,24.4560,-81.8770,21.2,1111122 
NDBC,ioos:station:NOAA.NDBC:SANF1:1,2016-03-03T09:50:00Z,24.4560,-81.8770,21.2,1111122 
NDBC,ioos:station:NOAA.NDBC:SANF1:1,2016-03-03T10:50:00Z,24.4560,-81.8770,20.9,1111122 
NDBC,ioos:station:NOAA.NDBC:SANF1:1,2016-03-03T11:50:00Z,24.4560,-81.8770,20.9,1111122 
NDBC,ioos:station:NOAA.NDBC:SANF1:1,2016-03-03T12:50:00Z,24.4560,-81.8770,21.1,1111122 
NDBC,ioos:station:NOAA.NDBC:SANF1:1,2016-03-03T13:50:00Z,24.4560,-81.8770,21.6,1111122 
NDBC,ioos:station:NOAA.NDBC:SANF1:1,2016-03-03T14:50:00Z,24.4560,-81.8770,22.0,1111122 
NDBC,ioos:station:NOAA.NDBC:SANF1:1,2016-03-03T15:50:00Z,24.4560,-81.8770,22.4,1111122 
NDBC,ioos:station:NOAA.NDBC:SANF1:1,2016-03-03T16:50:00Z,24.4560,-81.8770,22.7,1111122 
NDBC,ioos:station:NOAA.NDBC:SANF1:1,2016-03-03T18:50:00Z,24.4560,-81.8770,23.1,1111122 
NDBC,ioos:station:NOAA.NDBC:SANF1:1,2016-03-03T19:50:00Z,24.4560,-81.8770,23.3,1111122 
NDBC,ioos:station:NOAA.NDBC:SANF1:1,2016-03-03T20:50:00Z,24.4560,-81.8770,22.3,1111122 
NDBC,ioos:station:NOAA.NDBC:SANF1:1,2016-03-03T21:50:00Z,24.4560,-81.8770,22.3,1111122 
NDBC,ioos:station:NOAA.NDBC:SANF1:1,2016-03-03T22:50:00Z,24.4560,-81.8770,22.9,1111122 
NDBC,ioos:station:NOAA.NDBC:SANF1:1,2016-03-03T23:50:00Z,24.4560,-81.8770,22.9,1111122 
NDBC,ioos:station:NOAA.NDBC:SANF1:1,2016-03-04T00:50:00Z,24.4560,-81.8770,22.5,1111122 
NDBC,ioos:station:NOAA.NDBC:SANF1:1,2016-03-04T01:50:00Z,24.4560,-81.8770,23.4,1111122 
NDBC,ioos:station:NOAA.NDBC:SANF1:1,2016-03-04T02:50:00Z,24.4560,-81.8770,23.4,1111122 
NDBC,ioos:station:NOAA.NDBC:SANF1:1,2016-03-04T03:50:00Z,24.4560,-81.8770,23.4,1111122 
NDBC,ioos:station:NOAA.NDBC:SANF1:1,2016-03-04T04:50:00Z,24.4560,-81.8770,23.4,1111122 
NDBC,ioos:station:NOAA.NDBC:SANF1:1,2016-03-04T05:50:00Z,24.4560,-81.8770,23.5,1111122 
NDBC,ioos:station:NOAA.NDBC:SANF1:1,2016-03-04T06:50:00Z,24.4560,-81.8770,23.4,1111122 
NDBC,ioos:station:NOAA.NDBC:SANF1:1,2016-03-04T07:50:00Z,24.4560,-81.8770,23.2,1111122 
NDBC,ioos:station:NOAA.NDBC:SANF1:1,2016-03-04T08:50:00Z,24.4560,-81.8770,22.4,1111122 
NDBC,ioos:station:NOAA.NDBC:SANF1:1,2016-03-04T09:50:00Z,24.4560,-81.8770,22.6,1111122 
NDBC,ioos:station:NOAA.NDBC:SANF1:1,2016-03-04T10:50:00Z,24.4560,-81.8770,22.5,1111122 
NDBC,ioos:station:NOAA.NDBC:SANF1:1,2016-03-04T11:50:00Z,24.4560,-81.8770,22.5,1111122 
NDBC,ioos:station:NOAA.NDBC:SANF1:1,2016-03-04T12:50:00Z,24.4560,-81.8770,22.3,1111122 
NDBC,ioos:station:NOAA.NDBC:SANF1:1,2016-03-04T13:50:00Z,24.4560,-81.8770,22.7,1111122 
NDBC,ioos:station:NOAA.NDBC:SANF1:1,2016-03-04T14:50:00Z,24.4560,-81.8770,23.1,1111122 
NDBC,ioos:station:NOAA.NDBC:SANF1:1,2016-03-04T15:50:00Z,24.4560,-81.8770,23.4,1111122 
NDBC,ioos:station:NOAA.NDBC:SANF1:1,2016-03-04T16:50:00Z,24.4560,-81.8770,23.4,1111122 
NDBC,ioos:station:NOAA.NDBC:SANF1:1,2016-03-04T17:50:00Z,24.4560,-81.8770,23.5,1111122 
NDBC,ioos:station:NOAA.NDBC:SANF1:1,2016-03-04T18:50:00Z,24.4560,-81.8770,23.5,1111122 
NDBC,ioos:station:NOAA.NDBC:SANF1:1,2016-03-04T19:50:00Z,24.4560,-81.8770,23.6,1111122 
NDBC,ioos:station:NOAA.NDBC:SANF1:1,2016-03-04T20:50:00Z,24.4560,-81.8770,23.7,1111122 
NDBC,ioos:station:NOAA.NDBC:SANF1:1,2016-03-04T21:50:00Z,24.4560,-81.8770,23.5,1111122 
NDBC,ioos:station:NOAA.NDBC:SANF1:1,2016-03-04T22:50:00Z,24.4560,-81.8770,22.6,1111122 
NDBC,ioos:station:NOAA.NDBC:SANF1:1,2016-03-04T23:50:00Z,24.4560,-81.8770,22.6,1111122 
NDBC,ioos:station:NOAA.NDBC:SANF1:1,2016-03-05T00:50:00Z,24.4560,-81.8770,22.4,1111122 
NDBC,ioos:station:NOAA.NDBC:SANF1:1,2016-03-05T01:50:00Z,24.4560,-81.8770,22.3,1111122 
NDBC,ioos:station:NOAA.NDBC:SANF1:1,2016-03-05T02:50:00Z,24.4560,-81.8770,22.1,1111122 
NDBC,ioos:station:NOAA.NDBC:SANF1:1,2016-03-05T03:50:00Z,24.4560,-81.8770,21.6,1111122 
NDBC,ioos:station:NOAA.NDBC:SANF1:1,2016-03-05T05:50:00Z,24.4560,-81.8770,21.3,1111122 
NDBC,ioos:station:NOAA.NDBC:SANF1:1,2016-03-05T06:50:00Z,24.4560,-81.8770,21.5,1111122 
NDBC,ioos:station:NOAA.NDBC:SANF1:1,2016-03-05T08:50:00Z,24.4560,-81.8770,20.3,1111122 
NDBC,ioos:station:NOAA.NDBC:SANF1:1,2016-03-05T09:50:00Z,24.4560,-81.8770,20.1,1111122 
NDBC,ioos:station:NOAA.NDBC:SANF1:1,2016-03-05T10:50:00Z,24.4560,-81.8770,20.1,1111122 
NDBC,ioos:station:NOAA.NDBC:SANF1:1,2016-03-05T11:50:00Z,24.4560,-81.8770,19.9,1111122 
NDBC,ioos:station:NOAA.NDBC:SANF1:1,2016-03-05T12:50:00Z,24.4560,-81.8770,20.0,1111122 
NDBC,ioos:station:NOAA.NDBC:SANF1:1,2016-03-05T13:50:00Z,24.4560,-81.8770,20.4,1111122 
NDBC,ioos:station:NOAA.NDBC:SANF1:1,2016-03-05T14:50:00Z,24.4560,-81.8770,20.4,1111122 
NDBC,ioos:station:NOAA.NDBC:SANF1:1,2016-03-05T15:50:00Z,24.4560,-81.8770,20.1,1111122 
NDBC,ioos:station:NOAA.NDBC:SANF1:1,2016-03-05T17:50:00Z,24.4560,-81.8770,20.2,1111122 
NDBC,ioos:station:NOAA.NDBC:SANF1:1,2016-03-05T18:50:00Z,24.4560,-81.8770,20.5,1111122 
NDBC,ioos:station:NOAA.NDBC:SANF1:1,2016-03-05T19:50:00Z,24.4560,-81.8770,20.8,1111122 
NDBC,ioos:station:NOAA.NDBC:SANF1:1,2016-03-05T20:50:00Z,24.4560,-81.8770,20.5,1111122 
NDBC,ioos:station:NOAA.NDBC:SANF1:1,2016-03-05T21:50:00Z,24.4560,-81.8770,20.8,1111122 
NDBC,ioos:station:NOAA.NDBC:SANF1:1,2016-03-05T22:50:00Z,24.4560,-81.8770,20.9,1111122 
NDBC,ioos:station:NOAA.NDBC:SANF1:1,2016-03-06T00:50:00Z,24.4560,-81.8770,20.1,1111122 
NDBC,ioos:station:NOAA.NDBC:SANF1:1,2016-03-06T01:50:00Z,24.4560,-81.8770,19.6,1111122 
NDBC,ioos:station:NOAA.NDBC:SANF1:1,2016-03-06T02:50:00Z,24.4560,-81.8770,19.3,1111122 
NDBC,ioos:station:NOAA.NDBC:SANF1:1,2016-03-06T03:50:00Z,24.4560,-81.8770,19.1,1111122 
NDBC,ioos:station:NOAA.NDBC:SANF1:1,2016-03-06T04:50:00Z,24.4560,-81.8770,19.2,1111122 
NDBC,ioos:station:NOAA.NDBC:SANF1:1,2016-03-06T05:50:00Z,24.4560,-81.8770,19.2,1111122 
NDBC,ioos:station:NOAA.NDBC:SANF1:1,2016-03-06T06:50:00Z,24.4560,-81.8770,19.0,1111122 
NDBC,ioos:station:NOAA.NDBC:SANF1:1,2016-03-06T07:50:00Z,24.4560,-81.8770,19.1,1111122 
NDBC,ioos:station:NOAA.NDBC:SANF1:1,2016-03-06T08:50:00Z,24.4560,-81.8770,19.0,1111122 
NDBC,ioos:station:NOAA.NDBC:SANF1:1,2016-03-06T09:50:00Z,24.4560,-81.8770,19.0,1111122 
NDBC,ioos:station:NOAA.NDBC:SANF1:1,2016-03-06T10:50:00Z,24.4560,-81.8770,19.1,1111122 
NDBC,ioos:station:NOAA.NDBC:SANF1:1,2016-03-06T11:50:00Z,24.4560,-81.8770,19.0,1111122 
NDBC,ioos:station:NOAA.NDBC:SANF1:1,2016-03-06T12:50:00Z,24.4560,-81.8770,19.0,1111122 
NDBC,ioos:station:NOAA.NDBC:SANF1:1,2016-03-06T13:50:00Z,24.4560,-81.8770,18.9,1111122 
NDBC,ioos:station:NOAA.NDBC:SANF1:1,2016-03-06T14:50:00Z,24.4560,-81.8770,19.3,1111122 
NDBC,ioos:station:NOAA.NDBC:SANF1:1,2016-03-06T15:50:00Z,24.4560,-81.8770,19.1,1111122 
NDBC,ioos:station:NOAA.NDBC:SANF1:1,2016-03-06T16:50:00Z,24.4560,-81.8770,19.4,1111122 
NDBC,ioos:station:NOAA.NDBC:SANF1:1,2016-03-06T17:50:00Z,24.4560,-81.8770,19.7,1111122 
NDBC,ioos:station:NOAA.NDBC:SANF1:1,2016-03-06T18:50:00Z,24.4560,-81.8770,19.6,1111122 
NDBC,ioos:station:NOAA.NDBC:SANF1:1,2016-03-06T19:50:00Z,24.4560,-81.8770,19.8,1111122 
NDBC,ioos:station:NOAA.NDBC:SANF1:1,2016-03-06T20:50:00Z,24.4560,-81.8770,20.3,1111122 
NDBC,ioos:station:NOAA.NDBC:SANF1:1,2016-03-06T21:50:00Z,24.4560,-81.8770,20.6,1111122 
NDBC,ioos:station:NOAA.NDBC:SANF1:1,2016-03-06T23:50:00Z,24.4560,-81.8770,20.5,1111122 
NDBC,ioos:station:NOAA.NDBC:SANF1:1,2016-03-07T00:50:00Z,24.4560,-81.8770,20.4,1111122 
NDBC,ioos:station:NOAA.NDBC:SANF1:1,2016-03-07T01:50:00Z,24.4560,-81.8770,20.8,1111122 
NDBC,ioos:station:NOAA.NDBC:SANF1:1,2016-03-07T02:50:00Z,24.4560,-81.8770,21.2,1111122 
NDBC,ioos:station:NOAA.NDBC:SANF1:1,2016-03-07T03:50:00Z,24.4560,-81.8770,21.6,1111122 
NDBC,ioos:station:NOAA.NDBC:SANF1:1,2016-03-07T05:50:00Z,24.4560,-81.8770,21.4,1111122 
NDBC,ioos:station:NOAA.NDBC:SANF1:1,2016-03-07T06:50:00Z,24.4560,-81.8770,21.1,1111122 
NDBC,ioos:station:NOAA.NDBC:SANF1:1,2016-03-07T07:50:00Z,24.4560,-81.8770,20.5,1111122 
NDBC,ioos:station:NOAA.NDBC:SANF1:1,2016-03-07T08:50:00Z,24.4560,-81.8770,20.3,1111122 
NDBC,ioos:station:NOAA.NDBC:SANF1:1,2016-03-07T09:50:00Z,24.4560,-81.8770,20.4,1111122 
NDBC,ioos:station:NOAA.NDBC:SANF1:1,2016-03-07T11:50:00Z,24.4560,-81.8770,20.6,1111122 
NDBC,ioos:station:NOAA.NDBC:SANF1:1,2016-03-07T12:50:00Z,24.4560,-81.8770,20.9,1111122 
NDBC,ioos:station:NOAA.NDBC:SANF1:1,2016-03-07T13:50:00Z,24.4560,-81.8770,21.2,1111122 
NDBC,ioos:station:NOAA.NDBC:SANF1:1,2016-03-07T14:50:00Z,24.4560,-81.8770,22.3,1111122 
NDBC,ioos:station:NOAA.NDBC:SANF1:1,2016-03-07T15:50:00Z,24.4560,-81.8770,22.2,1111122 
NDBC,ioos:station:NOAA.NDBC:SANF1:1,2016-03-07T16:50:00Z,24.4560,-81.8770,22.2,1111122 
NDBC,ioos:station:NOAA.NDBC:SANF1:1,2016-03-07T17:50:00Z,24.4560,-81.8770,21.9,1111122 
NDBC,ioos:station:NOAA.NDBC:SANF1:1,2016-03-07T18:50:00Z,24.4560,-81.8770,21.9,1111122 
NDBC,ioos:station:NOAA.NDBC:SANF1:1,2016-03-07T20:50:00Z,24.4560,-81.8770,22.2,1111122 
NDBC,ioos:station:NOAA.NDBC:SANF1:1,2016-03-07T21:50:00Z,24.4560,-81.8770,22.2,1111122 
NDBC,ioos:station:NOAA.NDBC:SANF1:1,2016-03-08T10:50:00Z,24.4560,-81.8770,22.4,1111122 
NDBC,ioos:station:NOAA.NDBC:SANF1:1,2016-03-08T11:50:00Z,24.4560,-81.8770,22.5,1111122 
NDBC,ioos:station:NOAA.NDBC:SANF1:1,2016-03-08T12:50:00Z,24.4560,-81.8770,22.7,1111122 
NDBC,ioos:station:NOAA.NDBC:SANF1:1,2016-03-08T13:50:00Z,24.4560,-81.8770,22.9,1111122 
NDBC,ioos:station:NOAA.NDBC:SANF1:1,2016-03-08T14:50:00Z,24.4560,-81.8770,23.3,1111122 
NDBC,ioos:station:NOAA.NDBC:SANF1:1,2016-03-08T15:50:00Z,24.4560,-81.8770,23.2,1111122 
NDBC,ioos:station:NOAA.NDBC:SANF1:1,2016-03-08T16:50:00Z,24.4560,-81.8770,23.3,1111122 
NDBC,ioos:station:NOAA.NDBC:SANF1:1,2016-03-08T18:50:00Z,24.4560,-81.8770,23.3,1111122 
NDBC,ioos:station:NOAA.NDBC:SANF1:1,2016-03-08T19:50:00Z,24.4560,-81.8770,23.2,1111122 
NDBC,ioos:station:NOAA.NDBC:SANF1:1,2016-03-08T20:50:00Z,24.4560,-81.8770,23.2,1111122 
NDBC,ioos:station:NOAA.NDBC:SANF1:1,2016-03-08T21:50:00Z,24.4560,-81.8770,23.3,1111122 
NDBC,ioos:station:NOAA.NDBC:SANF1:1,2016-03-08T22:50:00Z,24.4560,-81.8770,23.6,1111122 
NDBC,ioos:station:NOAA.NDBC:SANF1:1,2016-03-09T00:50:00Z,24.4560,-81.8770,23.3,1111122 
NDBC,ioos:station:NOAA.NDBC:SANF1:1,2016-03-09T01:50:00Z,24.4560,-81.8770,23.5,1111122 
NDBC,ioos:station:NOAA.NDBC:SANF1:1,2016-03-09T02:50:00Z,24.4560,-81.8770,23.5,1111122 
NDBC,ioos:station:NOAA.NDBC:SANF1:1,2016-03-09T03:50:00Z,24.4560,-81.8770,23.5,1111122 
NDBC,ioos:station:NOAA.NDBC:SANF1:1,2016-03-09T04:50:00Z,24.4560,-81.8770,23.5,1111122 
NDBC,ioos:station:NOAA.NDBC:SANF1:1,2016-03-09T05:50:00Z,24.4560,-81.8770,23.4,1111122 
NDBC,ioos:station:NOAA.NDBC:SANF1:1,2016-03-09T06:50:00Z,24.4560,-81.8770,23.2,1111122 
NDBC,ioos:station:NOAA.NDBC:SANF1:1,2016-03-09T07:50:00Z,24.4560,-81.8770,23.2,1111122 
NDBC,ioos:station:NOAA.NDBC:SANF1:1,2016-03-09T08:50:00Z,24.4560,-81.8770,23.3,1111122 
NDBC,ioos:station:NOAA.NDBC:SANF1:1,2016-03-09T09:50:00Z,24.4560,-81.8770,23.4,1111122 
NDBC,ioos:station:NOAA.NDBC:SANF1:1,2016-03-09T10:50:00Z,24.4560,-81.8770,23.4,1111122 
NDBC,ioos:station:NOAA.NDBC:SANF1:1,2016-03-09T11:50:00Z,24.4560,-81.8770,23.3,1111122 
NDBC,ioos:station:NOAA.NDBC:SANF1:1,2016-03-09T12:50:00Z,24.4560,-81.8770,23.5,1111122 
NDBC,ioos:station:NOAA.NDBC:SANF1:1,2016-03-09T13:50:00Z,24.4560,-81.8770,23.7,1111122 
NDBC,ioos:station:NOAA.NDBC:SANF1:1,2016-03-09T14:50:00Z,24.4560,-81.8770,23.5,1111122 
NDBC,ioos:station:NOAA.NDBC:SANF1:1,2016-03-09T15:50:00Z,24.4560,-81.8770,23.4,1111122 
NDBC,ioos:station:NOAA.NDBC:SANF1:1,2016-03-09T16:50:00Z,24.4560,-81.8770,23.3,1111122 
NDBC,ioos:station:NOAA.NDBC:SANF1:1,2016-03-09T17:50:00Z,24.4560,-81.8770,23.6,1111122 
NDBC,ioos:station:NOAA.NDBC:SANF1:1,2016-03-09T18:50:00Z,24.4560,-81.8770,23.5,1111122 
NDBC,ioos:station:NOAA.NDBC:SANF1:1,2016-03-09T19:50:00Z,24.4560,-81.8770,23.5,1111122 
NDBC,ioos:station:NOAA.NDBC:SANF1:1,2016-03-09T20:50:00Z,24.4560,-81.8770,23.4,1111122 
NDBC,ioos:station:NOAA.NDBC:SANF1:1,2016-03-09T22:50:00Z,24.4560,-81.8770,23.5,1111122 
NDBC,ioos:station:NOAA.NDBC:SANF1:1,2016-03-09T23:50:00Z,24.4560,-81.8770,23.4,1111122 
NDBC,ioos:station:NOAA.NDBC:SANF1:1,2016-03-10T00:50:00Z,24.4560,-81.8770,23.4,1111122 
NDBC,ioos:station:NOAA.NDBC:SANF1:1,2016-03-10T01:50:00Z,24.4560,-81.8770,23.5,1111122 
NDBC,ioos:station:NOAA.NDBC:SANF1:1,2016-03-10T02:50:00Z,24.4560,-81.8770,23.4,1111122 
NDBC,ioos:station:NOAA.NDBC:SANF1:1,2016-03-10T03:50:00Z,24.4560,-81.8770,23.5,1111122 
NDBC,ioos:station:NOAA.NDBC:SANF1:1,2016-03-10T04:50:00Z,24.4560,-81.8770,23.5,1111122 
NDBC,ioos:station:NOAA.NDBC:SANF1:1,2016-03-10T06:50:00Z,24.4560,-81.8770,23.7,1111122 
NDBC,ioos:station:NOAA.NDBC:SANF1:1,2016-03-10T07:50:00Z,24.4560,-81.8770,23.7,1111122 
NDBC,ioos:station:NOAA.NDBC:SANF1:1,2016-03-10T08:50:00Z,24.4560,-81.8770,23.6,1111122 
NDBC,ioos:station:NOAA.NDBC:SANF1:1,2016-03-10T09:50:00Z,24.4560,-81.8770,23.9,1111122 
NDBC,ioos:station:NOAA.NDBC:SANF1:1,2016-03-10T10:50:00Z,24.4560,-81.8770,23.8,1111122 
NDBC,ioos:station:NOAA.NDBC:SANF1:1,2016-03-10T12:50:00Z,24.4560,-81.8770,24.0,1111122 
NDBC,ioos:station:NOAA.NDBC:SANF1:1,2016-03-10T13:50:00Z,24.4560,-81.8770,23.6,1111122 
NDBC,ioos:station:NOAA.NDBC:SANF1:1,2016-03-10T14:50:00Z,24.4560,-81.8770,24.7,1111122 
NDBC,ioos:station:NOAA.NDBC:SANF1:1,2016-03-10T15:50:00Z,24.4560,-81.8770,24.6,1111122 
NDBC,ioos:station:NOAA.NDBC:SANF1:1,2016-03-10T16:50:00Z,24.4560,-81.8770,24.5,1111122 
NDBC,ioos:station:NOAA.NDBC:SANF1:1,2016-03-10T18:50:00Z,24.4560,-81.8770,24.3,1111122 
NDBC,ioos:station:NOAA.NDBC:SANF1:1,2016-03-10T19:50:00Z,24.4560,-81.8770,24.5,1111122 
NDBC,ioos:station:NOAA.NDBC:SANF1:1,2016-03-10T20:50:00Z,24.4560,-81.8770,24.4,1111122 
NDBC,ioos:station:NOAA.NDBC:SANF1:1,2016-03-10T21:50:00Z,24.4560,-81.8770,24.4,1111122 
NDBC,ioos:station:NOAA.NDBC:SANF1:1,2016-03-10T22:50:00Z,24.4560,-81.8770,24.3,1111122 
NDBC,ioos:station:NOAA.NDBC:SANF1:1,2016-03-10T23:50:00Z,24.4560,-81.8770,24.2,1111122 
NDBC,ioos:station:NOAA.NDBC:SANF1:1,2016-03-11T00:50:00Z,24.4560,-81.8770,24.0,1111122 
NDBC,ioos:station:NOAA.NDBC:SANF1:1,2016-03-11T01:50:00Z,24.4560,-81.8770,24.0,1111122 
NDBC,ioos:station:NOAA.NDBC:SANF1:1,2016-03-11T02:50:00Z,24.4560,-81.8770,24.0,1111122 
NDBC,ioos:station:NOAA.NDBC:SANF1:1,2016-03-11T03:50:00Z,24.4560,-81.8770,23.9,1111122 
NDBC,ioos:station:NOAA.NDBC:SANF1:1,2016-03-11T04:50:00Z,24.4560,-81.8770,23.9,1111122 
NDBC,ioos:station:NOAA.NDBC:SANF1:1,2016-03-11T05:50:00Z,24.4560,-81.8770,23.8,1111122 
NDBC,ioos:station:NOAA.NDBC:SANF1:1,2016-03-11T06:50:00Z,24.4560,-81.8770,23.8,1111122 
NDBC,ioos:station:NOAA.NDBC:SANF1:1,2016-03-11T07:50:00Z,24.4560,-81.8770,23.7,1111122 
NDBC,ioos:station:NOAA.NDBC:SANF1:1,2016-03-11T08:50:00Z,24.4560,-81.8770,23.6,1111122 
NDBC,ioos:station:NOAA.NDBC:SANF1:1,2016-03-11T10:50:00Z,24.4560,-81.8770,23.6,1111122 
NDBC,ioos:station:NOAA.NDBC:SANF1:1,2016-03-11T11:50:00Z,24.4560,-81.8770,23.7,1111122 
NDBC,ioos:station:NOAA.NDBC:SANF1:1,2016-03-11T12:50:00Z,24.4560,-81.8770,23.8,1111122 
NDBC,ioos:station:NOAA.NDBC:SANF1:1,2016-03-11T13:50:00Z,24.4560,-81.8770,24.0,1111122 
NDBC,ioos:station:NOAA.NDBC:SANF1:1,2016-03-11T14:50:00Z,24.4560,-81.8770,23.9,1111122 
NDBC,ioos:station:NOAA.NDBC:SANF1:1,2016-03-11T16:50:00Z,24.4560,-81.8770,24.2,1111122 
NDBC,ioos:station:NOAA.NDBC:SANF1:1,2016-03-11T17:50:00Z,24.4560,-81.8770,24.2,1111122 
NDBC,ioos:station:NOAA.NDBC:SANF1:1,2016-03-11T18:50:00Z,24.4560,-81.8770,24.2,1111122 
NDBC,ioos:station:NOAA.NDBC:SANF1:1,2016-03-11T19:50:00Z,24.4560,-81.8770,24.3,1111122 
NDBC,ioos:station:NOAA.NDBC:SANF1:1,2016-03-11T20:50:00Z,24.4560,-81.8770,24.4,1111122 
NDBC,ioos:station:NOAA.NDBC:SANF1:1,2016-03-11T21:50:00Z,24.4560,-81.8770,24.5,1111122 
NDBC,ioos:station:NOAA.NDBC:SANF1:1,2016-03-11T22:50:00Z,24.4560,-81.8770,24.4,1111122 
NDBC,ioos:station:NOAA.NDBC:SANF1:1,2016-03-12T00:50:00Z,24.4560,-81.8770,23.8,1111122 
NDBC,ioos:station:NOAA.NDBC:SANF1:1,2016-03-12T01:50:00Z,24.4560,-81.8770,23.9,1111122 
NDBC,ioos:station:NOAA.NDBC:SANF1:1,2016-03-12T02:50:00Z,24.4560,-81.8770,24.0,1111122 
NDBC,ioos:station:NOAA.NDBC:SANF1:1,2016-03-12T03:50:00Z,24.4560,-81.8770,24.2,1111122 
NDBC,ioos:station:NOAA.NDBC:SANF1:1,2016-03-12T04:50:00Z,24.4560,-81.8770,24.3,1111122 
NDBC,ioos:station:NOAA.NDBC:SANF1:1,2016-03-12T06:50:00Z,24.4560,-81.8770,24.3,1111122 
NDBC,ioos:station:NOAA.NDBC:SANF1:1,2016-03-12T07:50:00Z,24.4560,-81.8770,24.3,1111122 
NDBC,ioos:station:NOAA.NDBC:SANF1:1,2016-03-12T08:50:00Z,24.4560,-81.8770,24.3,1111122 
NDBC,ioos:station:NOAA.NDBC:SANF1:1,2016-03-12T09:50:00Z,24.4560,-81.8770,24.4,1111122 
NDBC,ioos:station:NOAA.NDBC:SANF1:1,2016-03-12T10:50:00Z,24.4560,-81.8770,24.3,1111122 
NDBC,ioos:station:NOAA.NDBC:SANF1:1,2016-03-12T11:50:00Z,24.4560,-81.8770,24.4,1111122 
NDBC,ioos:station:NOAA.NDBC:SANF1:1,2016-03-12T12:50:00Z,24.4560,-81.8770,24.5,1111122 
NDBC,ioos:station:NOAA.NDBC:SANF1:1,2016-03-12T13:50:00Z,24.4560,-81.8770,24.7,1111122 
NDBC,ioos:station:NOAA.NDBC:SANF1:1,2016-03-12T14:50:00Z,24.4560,-81.8770,24.4,1111122 
NDBC,ioos:station:NOAA.NDBC:SANF1:1,2016-03-12T15:50:00Z,24.4560,-81.8770,24.9,1111122 
NDBC,ioos:station:NOAA.NDBC:SANF1:1,2016-03-12T16:50:00Z,24.4560,-81.8770,25.2,1111122 
NDBC,ioos:station:NOAA.NDBC:SANF1:1,2016-03-12T17:50:00Z,24.4560,-81.8770,25.3,1111122 
NDBC,ioos:station:NOAA.NDBC:SANF1:1,2016-03-12T18:50:00Z,24.4560,-81.8770,25.1,1111122 
NDBC,ioos:station:NOAA.NDBC:SANF1:1,2016-03-12T19:50:00Z,24.4560,-81.8770,25.1,1111122 
NDBC,ioos:station:NOAA.NDBC:SANF1:1,2016-03-12T20:50:00Z,24.4560,-81.8770,25.2,1111122 
NDBC,ioos:station:NOAA.NDBC:SANF1:1,2016-03-12T21:50:00Z,24.4560,-81.8770,25.0,1111122 
NDBC,ioos:station:NOAA.NDBC:SANF1:1,2016-03-12T22:50:00Z,24.4560,-81.8770,24.7,1111122 
NDBC,ioos:station:NOAA.NDBC:SANF1:1,2016-03-12T23:50:00Z,24.4560,-81.8770,24.7,1111122 
NDBC,ioos:station:NOAA.NDBC:SANF1:1,2016-03-13T00:50:00Z,24.4560,-81.8770,24.8,1111122 
NDBC,ioos:station:NOAA.NDBC:SANF1:1,2016-03-13T01:50:00Z,24.4560,-81.8770,24.8,1111122 
NDBC,ioos:station:NOAA.NDBC:SANF1:1,2016-03-13T02:50:00Z,24.4560,-81.8770,24.8,1111122 
NDBC,ioos:station:NOAA.NDBC:SANF1:1,2016-03-13T03:50:00Z,24.4560,-81.8770,25.0,1111122 
NDBC,ioos:station:NOAA.NDBC:SANF1:1,2016-03-13T04:50:00Z,24.4560,-81.8770,25.0,1111122 
NDBC,ioos:station:NOAA.NDBC:SANF1:1,2016-03-13T05:50:00Z,24.4560,-81.8770,25.0,1111122 
NDBC,ioos:station:NOAA.NDBC:SANF1:1,2016-03-13T06:50:00Z,24.4560,-81.8770,24.9,1111122 
NDBC,ioos:station:NOAA.NDBC:SANF1:1,2016-03-13T07:50:00Z,24.4560,-81.8770,24.8,1111122 
NDBC,ioos:station:NOAA.NDBC:SANF1:1,2016-03-13T08:50:00Z,24.4560,-81.8770,24.7,1111122 
NDBC,ioos:station:NOAA.NDBC:SANF1:1,2016-03-13T09:50:00Z,24.4560,-81.8770,24.9,1111122 
NDBC,ioos:station:NOAA.NDBC:SANF1:1,2016-03-13T10:50:00Z,24.4560,-81.8770,24.8,1111122 
NDBC,ioos:station:NOAA.NDBC:SANF1:1,2016-03-13T11:50:00Z,24.4560,-81.8770,24.8,1111122 
NDBC,ioos:station:NOAA.NDBC:SANF1:1,2016-03-13T12:50:00Z,24.4560,-81.8770,24.8,1111122 
NDBC,ioos:station:NOAA.NDBC:SANF1:1,2016-03-13T13:50:00Z,24.4560,-81.8770,24.9,1111122 
NDBC,ioos:station:NOAA.NDBC:SANF1:1,2016-03-13T14:50:00Z,24.4560,-81.8770,25.0,1111122 
NDBC,ioos:station:NOAA.NDBC:SANF1:1,2016-03-13T16:50:00Z,24.4560,-81.8770,25.3,1111122 
NDBC,ioos:station:NOAA.NDBC:SANF1:1,2016-03-13T17:50:00Z,24.4560,-81.8770,25.0,1111122 
NDBC,ioos:station:NOAA.NDBC:SANF1:1,2016-03-13T18:50:00Z,24.4560,-81.8770,25.0,1111122 
NDBC,ioos:station:NOAA.NDBC:SANF1:1,2016-03-13T19:50:00Z,24.4560,-81.8770,25.3,1111122 
NDBC,ioos:station:NOAA.NDBC:SANF1:1,2016-03-13T20:50:00Z,24.4560,-81.8770,25.3,1111122 
NDBC,ioos:station:NOAA.NDBC:SANF1:1,2016-03-13T21:50:00Z,24.4560,-81.8770,25.2,1111122 
NDBC,ioos:station:NOAA.NDBC:SANF1:1,2016-03-13T22:50:00Z,24.4560,-81.8770,24.9,1111122 
NDBC,ioos:station:NOAA.NDBC:SANF1:1,2016-03-13T23:50:00Z,24.4560,-81.8770,24.8,1111122 
NDBC,ioos:station:NOAA.NDBC:SANF1:1,2016-03-14T00:50:00Z,24.4560,-81.8770,24.6,1111122 
NDBC,ioos:station:NOAA.NDBC:SANF1:1,2016-03-14T01:50:00Z,24.4560,-81.8770,24.7,1111122 
NDBC,ioos:station:NOAA.NDBC:SANF1:1,2016-03-14T03:50:00Z,24.4560,-81.8770,25.4,1111122 
NDBC,ioos:station:NOAA.NDBC:SANF1:1,2016-03-14T04:50:00Z,24.4560,-81.8770,25.4,1111122 
NDBC,ioos:station:NOAA.NDBC:SANF1:1,2016-03-14T05:50:00Z,24.4560,-81.8770,25.3,1111122 
NDBC,ioos:station:NOAA.NDBC:SANF1:1,2016-03-14T07:50:00Z,24.4560,-81.8770,25.0,1111122 
NDBC,ioos:station:NOAA.NDBC:SANF1:1,2016-03-14T08:50:00Z,24.4560,-81.8770,25.2,1111122 
NDBC,ioos:station:NOAA.NDBC:SANF1:1,2016-03-14T09:50:00Z,24.4560,-81.8770,25.2,1111122 
NDBC,ioos:station:NOAA.NDBC:SANF1:1,2016-03-14T10:50:00Z,24.4560,-81.8770,25.1,1111122 
NDBC,ioos:station:NOAA.NDBC:SANF1:1,2016-03-14T11:50:00Z,24.4560,-81.8770,25.1,1111122 
NDBC,ioos:station:NOAA.NDBC:SANF1:1,2016-03-14T12:50:00Z,24.4560,-81.8770,25.1,1111122 
NDBC,ioos:station:NOAA.NDBC:SANF1:1,2016-03-14T13:50:00Z,24.4560,-81.8770,25.5,1111122 
NDBC,ioos:station:NOAA.NDBC:SANF1:1,2016-03-14T14:50:00Z,24.4560,-81.8770,25.7,1111122 
NDBC,ioos:station:NOAA.NDBC:SANF1:1,2016-03-14T16:50:00Z,24.4560,-81.8770,25.6,1111122 
NDBC,ioos:station:NOAA.NDBC:SANF1:1,2016-03-14T18:50:00Z,24.4560,-81.8770,25.5,1111122 
NDBC,ioos:station:NOAA.NDBC:SANF1:1,2016-03-14T19:50:00Z,24.4560,-81.8770,25.4,1111122 
NDBC,ioos:station:NOAA.NDBC:SANF1:1,2016-03-14T20:50:00Z,24.4560,-81.8770,25.5,1111122 
NDBC,ioos:station:NOAA.NDBC:SANF1:1,2016-03-14T21:50:00Z,24.4560,-81.8770,25.5,1111122 
NDBC,ioos:station:NOAA.NDBC:SANF1:1,2016-03-14T22:50:00Z,24.4560,-81.8770,25.8,1111122 
NDBC,ioos:station:NOAA.NDBC:SANF1:1,2016-03-14T23:50:00Z,24.4560,-81.8770,25.2,1111122 
NDBC,ioos:station:NOAA.NDBC:SANF1:1,2016-03-15T00:50:00Z,24.4560,-81.8770,24.7,1111122 
NDBC,ioos:station:NOAA.NDBC:SANF1:1,2016-03-15T01:50:00Z,24.4560,-81.8770,24.4,1111122 
NDBC,ioos:station:NOAA.NDBC:SANF1:1,2016-03-15T02:50:00Z,24.4560,-81.8770,24.5,1111122 
NDBC,ioos:station:NOAA.NDBC:SANF1:1,2016-03-15T03:50:00Z,24.4560,-81.8770,24.5,1111122 
NDBC,ioos:station:NOAA.NDBC:SANF1:1,2016-03-15T04:50:00Z,24.4560,-81.8770,24.4,1111122 
NDBC,ioos:station:NOAA.NDBC:SANF1:1,2016-03-15T05:50:00Z,24.4560,-81.8770,24.9,1111122 
NDBC,ioos:station:NOAA.NDBC:SANF1:1,2016-03-15T06:50:00Z,24.4560,-81.8770,24.8,1111122 
NDBC,ioos:station:NOAA.NDBC:SANF1:1,2016-03-15T07:50:00Z,24.4560,-81.8770,25.0,1111122 
NDBC,ioos:station:NOAA.NDBC:SANF1:1,2016-03-15T08:50:00Z,24.4560,-81.8770,24.8,1111122 
NDBC,ioos:station:NOAA.NDBC:SANF1:1,2016-03-15T09:50:00Z,24.4560,-81.8770,24.8,1111122 
NDBC,ioos:station:NOAA.NDBC:SANF1:1,2016-03-15T10:50:00Z,24.4560,-81.8770,24.7,1111122 
NDBC,ioos:station:NOAA.NDBC:SANF1:1,2016-03-15T11:50:00Z,24.4560,-81.8770,24.7,1111122 
NDBC,ioos:station:NOAA.NDBC:SANF1:1,2016-03-15T12:50:00Z,24.4560,-81.8770,24.8,1111122 
NDBC,ioos:station:NOAA.NDBC:SANF1:1,2016-03-15T13:50:00Z,24.4560,-81.8770,24.7,1111122 
NDBC,ioos:station:NOAA.NDBC:SANF1:1,2016-03-15T14:50:00Z,24.4560,-81.8770,24.9,1111122 
NDBC,ioos:station:NOAA.NDBC:SANF1:1,2016-03-15T15:50:00Z,24.4560,-81.8770,25.0,1111122 
NDBC,ioos:station:NOAA.NDBC:SANF1:1,2016-03-15T16:50:00Z,24.4560,-81.8770,25.0,1111122 